Погода в Шагаму

Нигерия     6°50′21″N   3°38′46″E
темп.,
°C
ветер,
м/с
пор.,
м/с
влажн.,
%
обл.,
%
осадки,
мм/ч
давл.,
гПа
погр.,
м
19 июня, сб
сб1901:00+25ююз118989 0.0 101313
04:00+24св2296100 0.1 101347
07:00+24ссв1196100 0.6 101435
10:00+29зюз227041 0.1 1014954
13:00+30ююз2367100 2.3 10131119
16:00+30ююз446292 0.4 1011938
19:00+26ююз377969 0.8 1012452
22:00+26ююз388397 0.0 1014522
20 июня, вс
вс2001:00+25ююз2694100 2.8 1014209
04:00+24з1195100 0.3 101312
07:00+24сз1296100 2.4 101460
10:00+25зюз1392100 4.2 1015185
13:00+25ююв2594100 7.7 1014320
16:00+24ююв2596100 4.7 1013362
19:00+24юз2796100 5.4 1013460
22:00+23ю1298100 0.4 101554
21 июня, пн
пн2101:00+23сз1198100 1.6 101415
04:00+23зюз1598100 1.8 1013187
07:00+23ссз1198100 3.9 101435
10:00+26зюз2485100 1.2 1015575
13:00+26юз3485100 5.2 1014637
16:00+25зюз2688100 0.9 1012391
19:00+24юз2589100 1.0 1013173
22:00+24юз2796100 2.6 1014309
22 июня, вт
вт2201:00+23юз1398100 12.2 1014133
04:00+23зюз3899100 28.8 1012384
07:00+22зсз2699100 36.1 1014295
10:00+23з1695100 0.2 1014400
13:00+28з3466100 0.3 1013968
16:00+29зюз336385 0.0 10111242
19:00+25юз2582100 0.1 1012130
22:00+24юз1589100 0.0 1013167
23 июня, ср
ср2301:00+23юз1192100 0.4 101245
04:00+23сз1194100 0.1 101212
07:00+23сз1194100 0.1 101318
10:00+28з127395 0.3 1014877
13:00+28ююз2279100 4.7 1012747
16:00+27юз248399 4.0 1010761
19:00+24ююз3790100 5.0 1012304
22:00+23ююз1493100 0.0 1013130